When you browse on this site, cookies collect data to enhance your experience and personalize the content and advertising you see.
Visit our Privacy Policy to learn more. By continuing to use the site, you agree to this use of cookies and data.

Tiempo cada hora Sololá

Hoy, 22 Septiembre, Martes

Tiempo Temperatura Precipitaciones Viento Presión Humedad
00:00 +13°C° 0 mm 2 mps 593 mmHg 94%
01:00 +13°C° 0 mm 2 mps 593 mmHg 92%
02:00 +12°C° 0 mm 2 mps 593 mmHg 91%
03:00 +12°C° 0 mm 2 mps 592 mmHg 89%
04:00 +12°C° 0 mm 2 mps 592 mmHg 87%
05:00 +12°C° 0 mm 2 mps 592 mmHg 86%
06:00 +12°C° 0 mm 2 mps 593 mmHg 84%
07:00 +15°C° 0 mm 1 mps 594 mmHg 76%
08:00 +19°C° 0 mm 1 mps 596 mmHg 68%
09:00 +21°C° 0 mm 1 mps 597 mmHg 60%
10:00 +22°C° 0 mm 1 mps 597 mmHg 58%
11:00 +23°C° 0 mm 2 mps 597 mmHg 57%
12:00 +24°C° 0 mm 2 mps 597 mmHg 56%
13:00 +23°C° 0.5 mm 2 mps 596 mmHg 61%
14:00 +23°C° 0.5 mm 2 mps 595 mmHg 67%
15:00 +21°C° 0.5 mm 2 mps 595 mmHg 73%
16:00 +20°C° 0.5 mm 1 mps 594 mmHg 81%
17:00 +19°C° 0.5 mm 1 mps 593 mmHg 88%
18:00 +15°C° 0.5 mm 0 mps 593 mmHg 96%
19:00 +15°C° 0.4 mm 1 mps 593 mmHg 96%
20:00 +15°C° 0.4 mm 1 mps 593 mmHg 96%
21:00 +14°C° 0.4 mm 1 mps 594 mmHg 96%
22:00 +14°C° 0.1 mm 1 mps 594 mmHg 96%
23:00 +14°C° 0.1 mm 1 mps 593 mmHg 96%

Mañana, 23 Septiembre, Miércoles

Tiempo Temperatura Precipitaciones Viento Presión Humedad
00:00 +14°C° 0.1 mm 1 mps 593 mmHg 95%
01:00 +13°C° 0 mm 1 mps 593 mmHg 95%
02:00 +13°C° 0 mm 1 mps 593 mmHg 94%
03:00 +13°C° 0 mm 1 mps 593 mmHg 94%
04:00 +13°C° 0 mm 1 mps 592 mmHg 93%
05:00 +13°C° 0 mm 1 mps 592 mmHg 93%
06:00 +13°C° 0 mm 1 mps 592 mmHg 92%
07:00 +15°C° 0 mm 1 mps 594 mmHg 83%
08:00 +19°C° 0 mm 1 mps 595 mmHg 75%
09:00 +21°C° 0 mm 1 mps 597 mmHg 66%
10:00 +22°C° 0.1 mm 1 mps 597 mmHg 65%
11:00 +23°C° 0.1 mm 2 mps 597 mmHg 63%
12:00 +24°C° 0.1 mm 2 mps 597 mmHg 62%
13:00 +23°C° 0.8 mm 2 mps 596 mmHg 70%
14:00 +20°C° 0.8 mm 2 mps 595 mmHg 78%
15:00 +20°C° 0.8 mm 1 mps 594 mmHg 86%
16:00 +19°C° 0.7 mm 1 mps 593 mmHg 90%
17:00 +18°C° 0.7 mm 1 mps 593 mmHg 93%
18:00 +15°C° 0.7 mm 0 mps 593 mmHg 97%
19:00 +15°C° 0.5 mm 0 mps 593 mmHg 97%
20:00 +14°C° 0.5 mm 0 mps 593 mmHg 97%
21:00 +14°C° 0.5 mm 0 mps 594 mmHg 97%
22:00 +13°C° 0.3 mm 0 mps 594 mmHg 96%
23:00 +13°C° 0.3 mm 0 mps 594 mmHg 95%

Pasado mañana, 24 Septiembre, Jueves

Tiempo Temperatura Precipitaciones Viento Presión Humedad
00:00 +13°C° 0.3 mm 0 mps 593 mmHg 95%
01:00 +14°C° 0 mm 1 mps 593 mmHg 94%
02:00 +13°C° 0 mm 1 mps 593 mmHg 93%
03:00 +13°C° 0 mm 1 mps 592 mmHg 92%
04:00 +13°C° 0 mm 1 mps 592 mmHg 92%
05:00 +13°C° 0 mm 1 mps 592 mmHg 91%
06:00 +12°C° 0 mm 1 mps 592 mmHg 91%
07:00 +15°C° 0 mm 1 mps 594 mmHg 84%
08:00 +19°C° 0 mm 1 mps 595 mmHg 76%
09:00 +21°C° 0 mm 1 mps 597 mmHg 69%
10:00 +21°C° 0.5 mm 1 mps 597 mmHg 71%
11:00 +22°C° 0.5 mm 1 mps 596 mmHg 74%
12:00 +21°C° 0.5 mm 2 mps 596 mmHg 76%
13:00 +21°C° 1.1 mm 1 mps 595 mmHg 79%
14:00 +21°C° 1.1 mm 1 mps 594 mmHg 83%
15:00 +20°C° 1.1 mm 1 mps 594 mmHg 86%
16:00 +19°C° 0.6 mm 1 mps 593 mmHg 90%
17:00 +18°C° 0.6 mm 1 mps 593 mmHg 93%
18:00 +15°C° 0.6 mm 0 mps 593 mmHg 97%
19:00 +15°C° 0.6 mm 0 mps 593 mmHg 96%
20:00 +14°C° 0.6 mm 0 mps 594 mmHg 96%
21:00 +14°C° 0.6 mm 0 mps 594 mmHg 95%
22:00 +14°C° 0.2 mm 0 mps 594 mmHg 95%
23:00 +13°C° 0.2 mm 0 mps 594 mmHg 95%

25 Septiembre, Viernes

Tiempo Temperatura Precipitaciones Viento Presión Humedad
00:00 +13°C° 0.2 mm 0 mps 594 mmHg 94%
01:00 +14°C° 0 mm 1 mps 593 mmHg 94%
02:00 +13°C° 0 mm 1 mps 593 mmHg 93%
03:00 +13°C° 0 mm 1 mps 592 mmHg 92%
04:00 +13°C° 0 mm 1 mps 592 mmHg 92%
05:00 +13°C° 0 mm 1 mps 592 mmHg 92%
06:00 +13°C° 0 mm 1 mps 592 mmHg 91%
07:00 +15°C° 0 mm 1 mps 594 mmHg 85%
08:00 +19°C° 0 mm 1 mps 595 mmHg 78%
09:00 +21°C° 0 mm 1 mps 597 mmHg 72%
10:00 +21°C° 1 mm 1 mps 596 mmHg 76%
11:00 +21°C° 1 mm 1 mps 596 mmHg 80%
12:00 +21°C° 1 mm 1 mps 596 mmHg 85%
13:00 +20°C° 1.5 mm 1 mps 595 mmHg 87%
14:00 +20°C° 1.5 mm 1 mps 594 mmHg 89%
15:00 +19°C° 1.5 mm 1 mps 593 mmHg 90%
16:00 +19°C° 0.8 mm 1 mps 593 mmHg 93%
17:00 +18°C° 0.8 mm 1 mps 593 mmHg 95%
18:00 +15°C° 0.8 mm 0 mps 593 mmHg 98%
19:00 +14°C° 1.5 mm 0 mps 593 mmHg 98%
20:00 +14°C° 1.5 mm 0 mps 594 mmHg 98%
21:00 +14°C° 1.5 mm 0 mps 594 mmHg 98%
22:00 +15°C° 3.8 mm 1 mps 594 mmHg 98%
23:00 +15°C° 3.8 mm 1 mps 594 mmHg 97%

26 Septiembre, Sábado

Tiempo Temperatura Precipitaciones Viento Presión Humedad
00:00 +15°C° 3.8 mm 1 mps 594 mmHg 96%
01:00 +14°C° 0.1 mm 1 mps 593 mmHg 96%
02:00 +14°C° 0.1 mm 1 mps 593 mmHg 95%
03:00 +13°C° 0.1 mm 1 mps 592 mmHg 95%
04:00 +13°C° 0 mm 1 mps 592 mmHg 94%
05:00 +13°C° 0 mm 1 mps 592 mmHg 93%
06:00 +13°C° 0 mm 1 mps 592 mmHg 93%
07:00 +15°C° 0 mm 1 mps 594 mmHg 86%
08:00 +18°C° 0 mm 1 mps 595 mmHg 80%
09:00 +20°C° 0 mm 1 mps 596 mmHg 74%
10:00 +21°C° 0.4 mm 1 mps 596 mmHg 76%
11:00 +20°C° 0.4 mm 2 mps 596 mmHg 78%
12:00 +20°C° 0.4 mm 2 mps 596 mmHg 79%
13:00 +20°C° 1.5 mm 2 mps 595 mmHg 84%
14:00 +20°C° 1.5 mm 1 mps 594 mmHg 88%
15:00 +19°C° 1.5 mm 1 mps 593 mmHg 92%
16:00 +18°C° 0.6 mm 1 mps 593 mmHg 94%
17:00 +18°C° 0.6 mm 1 mps 593 mmHg 96%
18:00 +15°C° 0.6 mm 0 mps 592 mmHg 98%
19:00 +14°C° 0.2 mm 0 mps 593 mmHg 97%
20:00 +14°C° 0.2 mm 0 mps 593 mmHg 96%
21:00 +14°C° 0.2 mm 0 mps 593 mmHg 96%
22:00 +13°C° 0.6 mm 0 mps 593 mmHg 95%
23:00 +13°C° 0.6 mm 0 mps 593 mmHg 95%

27 Septiembre, Domingo

Tiempo Temperatura Precipitaciones Viento Presión Humedad
00:00 +13°C° 0.6 mm 0 mps 593 mmHg 95%
01:00 +14°C° 0.3 mm 1 mps 593 mmHg 95%
02:00 +14°C° 0.3 mm 1 mps 592 mmHg 95%
03:00 +14°C° 0.3 mm 1 mps 592 mmHg 95%
04:00 +14°C° 0.3 mm 1 mps 592 mmHg 94%
05:00 +14°C° 0.3 mm 1 mps 592 mmHg 94%
06:00 +14°C° 0.3 mm 1 mps 593 mmHg 93%
07:00 +15°C° 0 mm 1 mps 593 mmHg 89%
08:00 +18°C° 0 mm 1 mps 594 mmHg 85%
09:00 +17°C° 0 mm 0 mps 595 mmHg 81%
10:00 +20°C° 0.2 mm 1 mps 595 mmHg 77%
11:00 +21°C° 0.2 mm 1 mps 595 mmHg 73%
12:00 +21°C° 0.2 mm 2 mps 596 mmHg 68%
13:00 +20°C° 1.5 mm 2 mps 595 mmHg 76%
14:00 +20°C° 1.5 mm 1 mps 594 mmHg 84%
15:00 +19°C° 1.5 mm 1 mps 593 mmHg 92%
16:00 +18°C° 0.8 mm 1 mps 593 mmHg 94%
17:00 +18°C° 0.8 mm 1 mps 592 mmHg 95%
18:00 +15°C° 0.8 mm 0 mps 592 mmHg 97%
19:00 +14°C° 0.3 mm 0 mps 593 mmHg 97%
20:00 +15°C° 0.3 mm 1 mps 593 mmHg 96%
21:00 +14°C° 0.3 mm 1 mps 593 mmHg 95%
22:00 +14°C° 0.1 mm 1 mps 593 mmHg 94%
23:00 +14°C° 0.1 mm 1 mps 593 mmHg 93%
Mostrar más